Starlink 3517

operational
NORAD ID: 51735 Int'l Des: 2022-016 Owner: SPXS Country: US Constellation: starlink
LEOCIRCULAR

关于 Starlink 3517

正在加载描述...

实时位置

正在加载3D地球...

即将过境

高度历史

Altitude vs Time

uPlot chart will show altitude changes over time

两行轨道根数

1 51735U 22016X 25260.64042620 -.00000031 00000-0 16116-4 0 9995
2 51735 53.2185 15.9700 0001369 83.6470 276.4679 15.08836159197448
Epoch: Sep 17, 2025 • Age: 13 hours

当前状态

高度 539.7 km
速度 7.59 km/s
星下点 13.50°N, 113.69°E
发射日期 Feb 21, 2022
运行时间 3.5 years
类型 internet

技术详情

分类 Payload
质量 297.00 kg
干质量 275.00 kg
总质量 297.00 kg
长度 0.20 m
直径 2.80 m
跨度 9.00 m
形状 Box + pan
制造商 SPXS
平台类型 Starlink
阶段状态 In Orbit
所有者/国家 SPXS/US

大型星座

Loading constellations...